Flag for Germany Weather past 2 weeks in Hildesheim, Lower Saxony, Germany

Now
68 °F

Scattered clouds.


Feels Like: 68 °F
Forecast: 50 / 76 °F
Wind: 6 mph from Northwest

Location: Braunschweig

Current Time: Aug 28, 2015 at 5:44:44 PM

Latest Report: Aug 28, 2015 at 5:20 PM


Visibility: N/A

Pressure: 30.09 "Hg

Humidity: 60%

Dew point: 54 °F

Location of HildesheimLocation

Historic Weather in Hildesheim — Graph

°F

Hildesheim temperature yesterday

Maximum temperature yesterday: 73 °F (at 9:20 AM)
Minimum temperature yesterday: 61 °F (at 8:20 PM)
Average temperature yesterday: 68 °F

Past Weeks' High & Low Weather Summary

 TemperatureHumidityPressure
High90 °F (Aug 14, 3:20 PM)100% (Aug 14, 7:50 PM)30.30 "Hg (Aug 14, 7:50 PM)
Low50 °F (Aug 21, 6:50 AM)30% (Aug 21, 2:50 PM)29.65 "Hg (Aug 24, 5:20 PM)
Average68 °F74%29.96 "Hg
* Reported Aug 13 4:20 PM — Aug 28 4:20 PM, Hildesheim, Weather by CustomWeather, © 2015

Note: Actual official high and low records may vary slightly from our data, if they occured in-between our weather recording intervals... More about our weather records

Advertising

Hildesheim weather history for previous 24 hours

 ConditionsComfort  
Time TempWeatherWind HumidityBarometerVisibility
4:20 PM
Fri, Aug 28
68 °FScattered clouds.8 mph60%30.09 "HgN/A
3:50 PM66 °FScattered clouds.8 mph64%30.07 "HgN/A
3:20 PM66 °FPartly sunny.8 mph64%30.07 "HgN/A
2:50 PM66 °FBroken clouds.8 mph68%30.07 "HgN/A
2:20 PM66 °FBroken clouds.9 mph64%30.07 "HgN/A
1:50 PM64 °FScattered clouds.7 mph78%30.07 "HgN/A
1:20 PM63 °FBroken clouds.6 mph77%30.07 "HgN/A
12:50 PM63 °FBroken clouds.5 mph77%30.07 "HgN/A
12:20 PM61 °FBroken clouds.8 mph83%30.07 "HgN/A
11:50 AM61 °FPartly sunny.5 mph88%30.04 "HgN/A
11:20 AM59 °FPartly sunny.5 mph88%30.04 "HgN/A
10:50 AM59 °FOvercast.9 mph94%30.04 "HgN/A
10:20 AM59 °FOvercast.7 mph100%30.04 "HgN/A
9:50 AM57 °FMostly cloudy.6 mph100%30.01 "HgN/A
9:20 AM57 °FMore clouds than sun.7 mph100%30.01 "HgN/A
8:50 AM57 °FBroken clouds.6 mph100%30.01 "HgN/A
8:20 AM57 °FPartly sunny.6 mph100%29.98 "HgN/A
7:50 AM57 °FPartly sunny.5 mph100%29.98 "HgN/A
7:20 AM57 °FPassing clouds.5 mph100%29.95 "HgN/A
6:50 AM55 °FPassing clouds.5 mph100%29.95 "HgN/A
9:50 PM
Thu, Aug 27
61 °FRain showers. Mostly cloudy.No wind100%29.86 "Hg5 mi
9:20 PM61 °FRain. Mostly cloudy.3 mph100%29.86 "Hg5 mi
8:50 PM61 °FLight rain. Cloudy.2 mph100%29.86 "HgN/A
8:20 PM61 °FMostly cloudy.3 mph100%29.86 "HgN/A
7:50 PM63 °FLight rain. Mostly cloudy.3 mph100%29.83 "HgN/A
7:20 PM63 °FMore clouds than sun.5 mph100%29.83 "HgN/A
6:50 PM63 °FLight rain. Broken clouds.No wind100%29.83 "HgN/A
6:20 PM64 °FLight rain. Mostly cloudy.6 mph88%29.83 "Hg6 mi
5:50 PM66 °FLight rain. Mostly cloudy.7 mph78%29.83 "HgN/A
5:20 PM68 °FLight rain. Mostly cloudy.8 mph69%29.83 "HgN/A
Weather by CustomWeather, © 2015

See weather overviewHow to use our weather pages